Retour au catalogue

OPS 7684

ActifMétéoPO
NORAD 3605·PAYLOAD·🇺🇸 United States

Lancé Dec 12, 1968 depuis Vandenberg Space Force Base

Loading…

Prochains Passages (prochaines 24 heures)

TLE

FraisSource: Space-Track

Époque: Sep 14, 2026, 09:17 UTC

1 03605U 68112B   26257.38736219  .00000082  00000-0  43009-3 0  9992
2 03605  80.3615  41.4819 0055903 296.2431  91.3143 12.60758816655242

Suivez OPS 7684 en temps réel avec AllMySat

Download on the App Store